Location: NJAA Observatory
(40.6819°N, 74.8979°W)
Time: 14:35:39
(UTC-04:00)

Cosmos 2263 Rocket - Visible Passes

Search period start: 30 September 2016 00:00
Search period end: 10 October 2016 00:00
Orbit: 825 x 847 km, 71.0° (Epoch: 28 September)

Date Brightness Start Highest point End Pass type
(mag) Time Alt. Az. Time Alt. Az. Time Alt. Az.
30 Sep 3.8 05:44:06 10° S 05:49:05 35° ESE 05:54:05 10° NE visible
01 Oct 3.9 05:27:32 10° SSE 05:32:25 32° ESE 05:37:18 10° NE visible
02 Oct 4.0 05:11:01 10° SSE 05:15:45 30° ESE 05:20:30 10° NE visible
03 Oct 4.1 04:54:30 10° SSE 04:59:05 27° ESE 05:03:42 10° NE visible
04 Oct 4.2 04:38:00 10° SSE 04:42:26 25° ESE 04:46:52 10° NE visible
04 Oct 2.5 06:20:45 10° SW 06:26:03 44° WNW 06:31:23 10° NNE visible
05 Oct 4.3 04:21:32 10° SSE 04:25:47 23° E 04:30:01 10° NE visible
05 Oct 2.4 06:03:58 10° SW 06:09:20 48° WNW 06:14:43 10° NNE visible
06 Oct 4.3 04:05:53 13° SE 04:09:07 21° E 04:13:10 10° NE visible
06 Oct 2.3 05:47:40 12° SW 05:52:36 52° WNW 05:58:03 10° NNE visible
07 Oct 4.4 03:50:47 17° ESE 03:52:29 19° E 03:56:17 10° ENE visible
07 Oct 2.2 05:32:33 23° SW 05:35:52 57° WNW 05:41:23 10° NNE visible
08 Oct 4.4 03:35:29 17° ESE 03:35:50 17° E 03:39:22 10° ENE visible
08 Oct 2.1 05:17:15 39° SW 05:19:10 62° WNW 05:24:42 10° NNE visible
09 Oct 4.7 03:20:02 15° E 03:20:02 15° E 03:22:24 10° ENE visible
09 Oct 2.0 05:01:47 61° WSW 05:02:27 67° WNW 05:08:01 10° NNE visible
